Location: Lichtensteig
(47.3376°N, 9.0841°E)
Time: 23:36:01
(UTC+00:00)

Cosmos 1933 Rocket - Pass Details

Date: 03 March 2021
Orbit: 607 x 629 km, 82.5° (Epoch: 14 April)

Event Time Altitude Azimuth Distance (km) Brightness Sun altitude
Rises 18:56:21 0° 197° (SSW) 2,860 7.1 -18.4°
Reaches altitude 10° 18:58:35 10° 201° (SSW) 1,963 6.2 -18.8°
Maximum altitude 19:02:53 59° 282° (WNW) 711 4.1 -19.5°
Drops below altitude 10° 19:07:14 10° 2° (N) 1,992 6.3 -20.2°
Sets 19:09:31 0° 7° (N) 2,907 7.1 -20.6°
